Eugene, OR

8:47 AM PDT on August 22, 2017 (GMT -0700)
Mahlon Sweet

Weather History for KEUG - August, 2014

Change the Weather History Date:

Friday, August 15, 2014

  Actual Average Record
Temperature  
Mean Temperature 71 °F 67 °F  
Max Temperature 81 °F 83 °F 99 °F (1967)
Min Temperature 60 °F 51 °F 39 °F (2000)
Degree Days  
Heating Degree Days 0 1  
Month to date heating degree days 0 15  
Since 1 June heating degree days 113 208  
Since 1 July heating degree days 6 51  
Cooling Degree Days 6 3  
Month to date cooling degree days 114 54  
Year to date cooling degree days 316 171  
Since 1 June cooling degree days 313 166  
Growing Degree Days 22 (Base 50)    
Moisture  
Dew Point 57 °F    
Average Humidity 69    
Maximum Humidity 90    
Minimum Humidity 47    
Precipitation  
Precipitation 0.00 in 0.02 in 0.64 in (1978)
Month to date precipitation 0.18 0.20  
Year to date precipitation 22.99 25.60  
Sea Level Pressure  
Sea Level Pressure 30.03 in    
Wind  
Wind Speed 6 mph (SW)    
Max Wind Speed 13 mph    
Max Gust Speed 16 mph    
Visibility 10 miles    
Events      
T = Trace of Precipitation, MM = Missing Value Source: NWS Daily Summary

Daily Weather History Graph

Daily Weather History Graph

Search for Another Location

Airport or City:

Trip Planner

Search our weather history database for the weather conditions in past years. The results will help you decide how hot, cold, wet, or windy it might be!

Date:

Astronomy

Aug. 15, 2014 Rise Set
Actual Time 6:16 AM PDT 8:17 PM PDT
Civil Twilight 5:45 AM PDT 8:48 PM PDT
Nautical Twilight 5:06 AM PDT 9:26 PM PDT
Astronomical Twilight 4:24 AM PDT 10:08 PM PDT
Moon 11:08 PM PDT (8/15) 12:19 PM PDT (8/15)
Length of Visible Light 15h 03m
Length of Day
14h 00m
Waning Gibbous, 68% of the Moon is Illuminated
Aug 15
Waning Gibbous
Aug 17
Last Quarter
Aug 25
New
Sep 2
First Quarter
Sep 8
Full

Hourly Weather History & Observations

Time (PDT) Temp. Dew Point Humidity Pressure Visibility Wind Dir Wind Speed Gust Speed Precip Events Conditions
12:54 AM 63.0 °F 57.9 °F 84% 30.00 in 10.0 mi SSW 4.6 mph - N/A   Mostly Cloudy
1:54 AM 61.0 °F 57.0 °F 87% 30.00 in 10.0 mi SSW 4.6 mph - N/A   Clear
2:20 AM 60.8 °F 57.2 °F 88% 30.01 in 10.0 mi SSW 3.5 mph - N/A   Mostly Cloudy
2:54 AM 63.0 °F 57.9 °F 84% 30.00 in 10.0 mi SSW 3.5 mph - N/A   Overcast
3:54 AM 64.0 °F 57.0 °F 78% 30.01 in 10.0 mi Calm Calm - N/A   Overcast
4:54 AM 63.0 °F 57.0 °F 81% 30.01 in 10.0 mi Calm Calm - N/A   Overcast
5:54 AM 63.0 °F 57.0 °F 81% 30.02 in 10.0 mi SSW 4.6 mph - N/A   Overcast
6:54 AM 63.0 °F 55.9 °F 78% 30.02 in 10.0 mi South 5.8 mph - N/A   Overcast
7:54 AM 64.0 °F 55.9 °F 75% 30.04 in 10.0 mi South 5.8 mph - N/A   Overcast
8:15 AM 64.0 °F 55.9 °F 75% 30.05 in 10.0 mi SSW 4.6 mph - N/A   Overcast
8:54 AM 66.0 °F 55.9 °F 70% 30.06 in 10.0 mi WSW 5.8 mph - N/A   Overcast
9:54 AM 66.9 °F 55.9 °F 68% 30.06 in 10.0 mi SSE 3.5 mph - N/A   Overcast
10:54 AM 71.1 °F 55.9 °F 59% 30.06 in 10.0 mi SW 9.2 mph - N/A   Overcast
11:54 AM 72.0 °F 55.9 °F 57% 30.06 in 10.0 mi SSW 6.9 mph - N/A   Overcast
12:54 PM 73.9 °F 55.9 °F 53% 30.05 in 10.0 mi WSW 5.8 mph - N/A   Overcast
1:54 PM 75.0 °F 55.9 °F 51% 30.04 in 10.0 mi Variable 3.5 mph - N/A   Mostly Cloudy
2:54 PM 77.0 °F 55.0 °F 47% 30.03 in 10.0 mi Variable 4.6 mph - N/A   Partly Cloudy
3:54 PM 79.0 °F 57.0 °F 47% 30.02 in 10.0 mi WSW 10.4 mph - N/A   Partly Cloudy
4:54 PM 79.0 °F 57.0 °F 47% 30.02 in 10.0 mi WSW 10.4 mph - N/A   Partly Cloudy
5:54 PM 78.1 °F 57.9 °F 50% 30.01 in 10.0 mi West 10.4 mph - N/A   Partly Cloudy
6:54 PM 77.0 °F 59.0 °F 54% 30.00 in 10.0 mi West 8.1 mph - N/A   Partly Cloudy
7:54 PM 72.0 °F 59.0 °F 64% 30.01 in 10.0 mi West 6.9 mph - N/A   Partly Cloudy
8:54 PM 68.0 °F 59.0 °F 73% 30.03 in 10.0 mi WSW 5.8 mph - N/A   Partly Cloudy
10:54 PM 63.0 °F 57.9 °F 84% 30.05 in 10.0 mi SW 4.6 mph - N/A   Clear
11:54 PM 60.1 °F 57.0 °F 90% 30.05 in 10.0 mi Calm Calm - N/A   Clear